This demonstration page uses our WeatherBlox Daily Observations layout. Learn more.

Left ArrowRight Arrow

34.02893, -84.19858

Hourly Observations for March 24, 2016

Temp ( °F °C ) Dew Point ( °F °C ) Humidity (%) Winds ( mph kmh ) Pressure ( in mb ) Visibility ( mi km ) Precip ( " mm )
12:53 am 00:53 Cloudy 62 16.7 48 8.9 60 60 Calm 30.09 1019 10 16 0.00 0.00
1:53 am 01:53 Cloudy 61 16.1 49 9.4 65 65 SSE 3 6 30.07 1018 10 16 0.00 0.00
2:53 am 02:53 Mostly Cloudy 59 15 48 8.9 67 67 SSE 6 9 30.06 1018 10 16 0.00 0.00
3:53 am 03:53 Clear 58 14.4 49 9.4 72 72 S 6 9 30.04 1017 10 16 0.00 0.00
4:53 am 04:53 Clear 56 13.3 50 10 81 81 S 6 9 30.03 1017 10 16 0.00 0.00
5:53 am 05:53 Clear 55 12.8 51 10.6 87 87 Calm 30.03 1017 10 16 0.00 0.00
6:53 am 06:53 Clear 50 10 48 8.9 93 93 Calm 30.04 1017 8 13 0.00 0.00
7:53 am 07:53 Sunny with Mist and Fog 52 11.1 50 10 93 93 Calm 30.05 1018 6 10 0.00 0.00
8:53 am 08:53 Mostly Sunny 56 13.3 52 11.1 87 87 ESE 3 6 30.05 1018 8 13 0.00 0.00
9:53 am 09:53 Sunny 59 15 51 10.6 75 75 SE 6 9 30.06 1018 8 13 0.00 0.00
10:53 am 10:53 Mostly Sunny 64 17.8 52 11.1 65 65 S 9 15 30.04 1017 9 14 0.00 0.00
11:35 am 11:35 Cloudy 67 19.4 52 11.1 59 59 S 10 17 30.03 1017 9 14 0.00 0.00
11:37 am 11:37 Cloudy 67 19.4 52 11.1 59 59 SSW 8 13 30.03 1017 10 16 0.00 0.00
11:53 am 11:53 Cloudy 69 20.6 52 11.1 55 55 S 10 17 30.01 1016 9 14 0.00 0.00
12:53 pm 12:53 Cloudy 71 21.7 53 11.7 53 53 S 12 19 29.97 1015 10 16 0.00 0.00
1:53 pm 13:53 Cloudy 73 22.8 53 11.7 50 50 S 18 30 29.93 1014 10 16 0.00 0.00
2:53 pm 14:53 Sunny 73 22.8 53 11.7 50 50 SSE 17 28 29.87 1012 10 16 0.00 0.00
3:53 pm 15:53 Cloudy 72 22.2 53 11.7 52 52 S 17 28 29.86 1011 10 16 0.00 0.00
4:53 pm 16:53 Cloudy 70 21.1 55 12.8 59 59 S 8 13 29.85 1011 10 16 0.00 0.03
5:53 pm 17:53 Cloudy with Rain 63 17.2 61 16.1 93 93 ESE 8 13 29.86 1011 4 6 0.17 4.32
6:53 pm 18:53 Partly Cloudy with Mist and Fog 63 17.2 61 16.1 93 93 SSE 17 28 29.76 1008 4 6 0.02 0.51
7:53 pm 19:53 Clear 65 18.3 58 14.4 78 78 SSW 9 15 29.75 1007 10 16 0.00 0.00
8:53 pm 20:53 Mostly Clear 65 18.3 60 15.6 84 84 S 9 15 29.76 1008 10 16 0.00 0.00
9:53 pm 21:53 Mostly Cloudy 65 18.3 60 15.6 84 84 W 7 11 29.81 1010 10 16 0.00 0.00
10:23 pm 22:23 Partly Cloudy 64 17.8 59 15 84 84 W 3 6 29.80 1009 10 16 0.00 0.00
10:53 pm 22:53 Mostly Cloudy 63 17.2 60 15.6 90 90 SW 3 6 29.81 1010 10 16 0.00 0.00
11:04 pm 23:04 Mostly Cloudy 63 17 61 16 94 94 SSW 6 9 29.80 1009 10 16 0.00 0.00
11:53 pm 23:53 Cloudy 64 17.8 60 15.6 87 87 SW 9 15 29.80 1009 10 16 0.00 0.00

Powered by AerisWeather